Regional Weather Roundup
Issued by NWS

Home | Current Version | Previous Version | Text Only | Print | Product List | Glossary On
Versions: 1 2 3 4 5 6 7 8 9 10 11 12 13 14 15 16 17 18 19 20 21 22 23 24 25 26 27 28 29 30 31 32 33 34 35 36 37 38 39 40 41 42 43 44 45 46 47 48 49 50
000
ASUS43 KOAX 210113
RWRNE

WEATHER ROUNDUP FOR NEBRASKA
NATIONAL WEATHER SERVICE OMAHA NE
700 PM CST TUE FEB 20 2024

NOTES: SATELLITE DATA IS BEING USED TO AUGMENT CLOUD COVER ABOVE
       12000 FEET.
       "FAIR" INDICATES FEW OR NO CLOUDS BELOW 12,000 FEET WITH NO
       SIGNIFICANT WEATHER AND/OR OBSTRUCTIONS TO VISIBILITY.


NEZ001>004-019>022-054>056-210200-
NEBRASKA PANHANDLE

CITY           SKY/WX    TMP DP  RH WIND       PRES   REMARKS
SCOTTSBLUFF    MOCLDY    53  31  42 NW10      29.99R
ALLIANCE       PTCLDY   N/A N/A N/A SE5       29.98R
CHADRON        PTCLDY    48  31  51 CALM      29.97R
GORDON         PTCLDY    42  28  57 CALM      29.98R
KIMBALL        CLOUDY    49  31  49 NW6       30.04R
SIDNEY         CLOUDY    53  29  39 N13       30.02R
$$

NEZ057>060-069>072-079>082-210200-
SOUTHWEST NEBRASKA

CITY           SKY/WX    TMP DP  RH WIND       PRES   REMARKS
NORTH PLATTE   CLEAR     46  26  45 NW5       29.97R
GRANT          CLEAR     50  32  50 N3        29.99R
IMPERIAL       CLEAR     49  31  49 NE8       29.98R
LEXINGTON      CLEAR     54  29  38 W7        29.98R
MCCOOK         CLEAR     57  31  37 N8        29.97R
OGALLALA       CLEAR     52  25  35 NE5       30.00R
$$

NEZ005>010-023>029-035>040-094-210200-
NORTH CENTRAL NEBRASKA

CITY           SKY/WX    TMP DP  RH WIND       PRES   REMARKS
VALENTINE      CLEAR     40  32  73 CALM      29.97R
AINSWORTH      CLEAR     45  31  59 N6        29.98R
BROKEN BOW     CLEAR     50  31  48 NW9       29.96R
O`NEILL        CLEAR     44  33  64 N10       29.96R
ORD            CLEAR    N/A N/A N/A W10       29.93R
THEDFORD       CLEAR     47  31  52 W3        30.00R
$$

NEZ041-046>049-061>064-073>077-083>087-210200-
SOUTH CENTRAL NEBRASKA

CITY           SKY/WX    TMP DP  RH WIND       PRES   REMARKS
GRAND ISLAND   CLEAR     58  30  34 SW10      29.94R
AURORA         CLEAR     53  31  42 SW10      29.94R
HASTINGS       CLEAR     60  29  30 SW6       29.96R
HEBRON         CLEAR     59  31  33 S8        29.97S
HOLDREGE       CLEAR     56  29  36 SW5       29.97R
KEARNEY        CLEAR     60  29  30 W5        29.97R
YORK           CLEAR     55  30  38 SW12      29.93R
$$

NEZ011>018-030>034-042>045-210200-
NORTHEAST NEBRASKA

CITY           SKY/WX    TMP DP  RH WIND       PRES   REMARKS
NORFOLK        CLEAR     56  34  43 N9        29.90R
ALBION         CLEAR     49  27  41 NW6       29.92R
BLAIR          CLEAR     58  29  33 S12       29.93S
COLUMBUS       CLEAR     60  32  34 S10       29.91R
FREMONT        CLEAR     61  27  27 S8        29.92S
TEKAMAH        CLEAR     50  31  48 S13       29.90S
WAYNE          CLEAR     52  34  51 CALM      29.91R
$$

NEZ050>053-065>068-078-088>093-210200-
SOUTHEAST NEBRASKA

CITY           SKY/WX    TMP DP  RH WIND       PRES   REMARKS
LINCOLN        PTCLDY    53  29  39 S10       29.95R
OMAHA EPPLEY   PTCLDY    53  28  38 S12       29.94R
BEATRICE       PTCLDY    57  31  37 S9          N/A
FALLS CITY     PTCLDY    61  30  31 S10       29.98S
NEBRASKA CITY  MOCLDY    55  28  35 S7        29.98R
PLATTSMOUTH    PTCLDY    58  29  33 S8        29.95F
$$

NEZ044-045-051>053-067-210200-
OMAHA AREA

CITY           SKY/WX    TMP DP  RH WIND       PRES   REMARKS
OMAHA EPPLEY   PTCLDY    53  28  38 S12       29.94R
BLAIR          CLEAR     58  29  33 S12       29.93S
FREMONT        CLEAR     61  27  27 S8        29.92S
MILLARD        PTCLDY    60  29  31 S6        29.94S
OFFUTT AFB     PTCLDY    55  26  33 S6        29.93S
PLATTSMOUTH    PTCLDY    58  29  33 S8        29.95F
WAHOO          CLEAR     52  28  40 S10       29.93R
$$



USA.gov is the U.S. government's official web portal to all federal, state and local government web resources and services.